TimeCDT,TemperatureF,Dew PointF,Humidity,Sea Level PressureIn,VisibilityMPH,Wind Direction,Wind SpeedMPH,Gust SpeedMPH,PrecipitationIn,Events,Conditions,WindDirDegrees,DateUTC
12:15 AM,45.5,39.2,79,30.11,10.0,East,15.0,-,N/A,,Overcast,80,2013-10-29 05:15:00
12:35 AM,44.6,40.5,85,30.10,10.0,East,11.5,-,N/A,,Light Drizzle,80,2013-10-29 05:35:00
12:55 AM,44.2,41.0,88,30.09,10.0,East,9.2,-,N/A,,Overcast,90,2013-10-29 05:55:00
1:15 AM,44.2,41.4,90,30.08,10.0,East,11.5,17.3,N/A,,Overcast,90,2013-10-29 06:15:00
1:35 AM,44.6,41.5,89,30.08,10.0,East,13.8,18.4,N/A,,Overcast,100,2013-10-29 06:35:00
1:55 AM,44.6,41.9,90,30.08,10.0,East,13.8,20.7,N/A,,Overcast,100,2013-10-29 06:55:00
2:15 AM,44.2,42.6,94,30.08,4.0,East,11.5,-,N/A,,Overcast,90,2013-10-29 07:15:00
2:35 AM,44.2,43.0,95,30.08,5.0,East,11.5,-,N/A,,Overcast,90,2013-10-29 07:35:00
2:55 AM,44.2,43.2,96,30.07,4.0,East,9.2,-,N/A,,Overcast,90,2013-10-29 07:55:00
3:15 AM,44.2,43.3,97,30.06,5.0,East,9.2,-,N/A,,Overcast,100,2013-10-29 08:15:00
3:35 AM,44.2,43.9,99,30.05,4.0,East,10.4,-,N/A,,Overcast,90,2013-10-29 08:35:00
3:55 AM,44.2,44.2,100,30.05,4.0,East,10.4,16.1,N/A,,Overcast,90,2013-10-29 08:55:00
4:15 AM,44.6,44.6,100,30.04,7.0,East,10.4,-,N/A,,Overcast,90,2013-10-29 09:15:00
8:55 AM,43.7,43.7,100,30.02,1.2,ENE,6.9,-,N/A,,Overcast,70,2013-10-29 13:55:00
9:35 AM,43.9,43.9,100,30.03,0.5,East,6.9,-,N/A,Fog,Fog,80,2013-10-29 14:35:00
9:55 AM,43.9,43.9,100,30.02,0.5,East,10.4,-,N/A,Fog,Fog,80,2013-10-29 14:55:00
10:15 AM,44.1,44.1,100,30.03,0.2,East,8.1,-,N/A,Fog,Fog,80,2013-10-29 15:15:00
10:35 AM,44.2,44.2,100,30.03,0.2,East,8.1,-,N/A,Fog,Fog,80,2013-10-29 15:35:00
10:55 AM,44.6,44.6,100,30.03,0.2,East,8.1,-,N/A,Fog,Fog,80,2013-10-29 15:55:00
11:15 AM,45.0,45.0,100,30.02,0.2,East,5.8,-,N/A,Fog,Fog,80,2013-10-29 16:15:00
11:35 AM,45.5,45.5,100,30.02,0.2,ENE,6.9,-,N/A,Fog,Fog,70,2013-10-29 16:35:00
11:55 AM,46.0,46.0,100,30.02,0.2,ENE,5.8,-,N/A,Fog,Fog,70,2013-10-29 16:55:00
12:15 PM,46.4,46.4,100,30.01,0.2,ENE,6.9,-,N/A,Fog,Fog,60,2013-10-29 17:15:00
12:35 PM,46.8,46.8,100,30.01,0.2,NE,8.1,-,N/A,Fog,Fog,50,2013-10-29 17:35:00
12:55 PM,47.3,47.3,100,30.00,0.2,ENE,8.1,-,N/A,Fog,Fog,60,2013-10-29 17:55:00
1:15 PM,47.3,47.3,100,29.99,0.2,ENE,8.1,-,N/A,Fog,Fog,60,2013-10-29 18:15:00
1:35 PM,47.3,47.3,100,29.98,0.2,NE,5.8,-,N/A,Fog,Fog,40,2013-10-29 18:35:00
1:55 PM,47.5,47.5,100,29.97,0.2,NE,6.9,-,N/A,Fog,Fog,40,2013-10-29 18:55:00
2:15 PM,47.7,47.7,100,29.97,0.2,NNE,8.1,-,N/A,Fog,Fog,30,2013-10-29 19:15:00
2:35 PM,47.8,47.8,100,29.96,0.5,NE,8.1,-,N/A,Fog,Fog,40,2013-10-29 19:35:00
2:55 PM,47.7,47.7,100,29.95,0.2,NE,9.2,-,N/A,Fog,Fog,50,2013-10-29 19:55:00
3:15 PM,47.7,47.7,100,29.94,0.2,NE,6.9,-,N/A,Fog,Fog,40,2013-10-29 20:15:00
3:35 PM,47.8,47.8,100,29.94,0.2,NNE,8.1,-,N/A,Fog,Fog,20,2013-10-29 20:35:00
3:55 PM,47.8,47.8,100,29.94,0.2,NNE,10.4,-,N/A,Fog,Fog,30,2013-10-29 20:55:00
4:15 PM,47.8,47.8,100,29.95,0.2,NNE,8.1,-,N/A,Fog,Fog,20,2013-10-29 21:15:00
4:35 PM,47.7,47.7,100,29.94,0.2,NNE,10.4,-,N/A,Fog,Fog,20,2013-10-29 21:35:00
4:55 PM,46.8,46.8,100,29.95,0.5,North,9.2,-,N/A,Rain,Rain,10,2013-10-29 21:55:00
5:15 PM,46.4,46.4,100,29.95,0.8,North,9.2,-,N/A,Rain,Light Rain,10,2013-10-29 22:15:00
5:35 PM,46.4,46.4,100,29.95,1.5,North,9.2,-,N/A,,Light Drizzle,10,2013-10-29 22:35:00
5:55 PM,46.4,46.4,100,29.95,1.5,NNE,10.4,-,0.01,,Overcast,20,2013-10-29 22:55:00
6:15 PM,46.4,46.4,100,29.94,1.8,NNE,10.4,-,N/A,,Overcast,20,2013-10-29 23:15:00
6:35 PM,46.0,46.0,100,29.95,2.0,North,8.1,-,N/A,,Overcast,10,2013-10-29 23:35:00
6:55 PM,45.9,45.9,100,29.96,1.8,North,9.2,-,N/A,,Overcast,10,2013-10-29 23:55:00
7:15 PM,45.9,45.9,100,29.96,1.8,North,8.1,-,N/A,,Overcast,10,2013-10-30 00:15:00
7:35 PM,45.9,45.9,100,29.97,1.5,North,9.2,-,N/A,,Overcast,10,2013-10-30 00:35:00
7:55 PM,45.7,45.7,100,29.97,1.5,North,9.2,-,N/A,,Overcast,360,2013-10-30 00:55:00
8:15 PM,45.9,45.9,100,29.98,1.5,North,9.2,-,N/A,,Overcast,350,2013-10-30 01:15:00
8:35 PM,45.1,45.1,100,29.98,1.2,North,9.2,-,N/A,,Overcast,350,2013-10-30 01:35:00
8:55 PM,44.8,44.8,100,29.99,1.2,NNW,9.2,-,N/A,,Overcast,340,2013-10-30 01:55:00
9:15 PM,44.6,44.6,100,29.99,1.2,North,11.5,-,N/A,,Overcast,350,2013-10-30 02:15:00
9:35 PM,44.2,44.2,100,29.99,1.2,NNW,11.5,-,N/A,,Overcast,340,2013-10-30 02:35:00
9:55 PM,43.9,43.9,100,29.99,1.2,NNW,12.7,17.3,N/A,,Overcast,340,2013-10-30 02:55:00
10:15 PM,43.0,43.0,100,30.01,1.5,NNW,15.0,-,N/A,,Overcast,330,2013-10-30 03:15:00
10:35 PM,42.1,42.1,100,30.01,1.8,NNW,12.7,-,N/A,,Overcast,340,2013-10-30 03:35:00
10:55 PM,41.9,41.9,100,30.01,2.5,NNW,11.5,-,N/A,,Overcast,340,2013-10-30 03:55:00
11:15 PM,41.5,41.5,100,30.01,4.0,North,11.5,-,N/A,,Overcast,350,2013-10-30 04:15:00
11:35 PM,41.4,41.4,100,30.01,7.0,North,8.1,-,N/A,,Overcast,350,2013-10-30 04:35:00
11:55 PM,41.5,41.5,100,30.01,10.0,NNW,8.1,-,N/A,,Overcast,340,2013-10-30 04:55:00